sat.trackr.live / text

‹ back to catalog

WGS F1 (USA 195)

NORAD 32258 · 2007-046A

PAYLOAD ACTIVE UNKNOWN

§ Identity

Operator
Country
US
Launch date
2007-10-11
Launch site
AFETR
Launch vehicle
Mass (kg)
RCS (m²)
15.89

Purposes: comms

External: N2YO · Heavens-Above · Gunter

§ Orbital elements

Epoch: 2026-09-13T01:40:37.333056Z

Period
1,436.12 min
Inclination
0.0105°
Eccentricity
0.0000452
Mean motion
1.00270375 rev/d
Perigee alt
35,785.1 km
Apogee alt
35,788.9 km
Semi-major
42,165.1 km
B*
0.0000e+0
RAAN
130.4148°
Arg perigee
59.4778°
Mean anomaly
144.8110°
Rev number
5,321

§ Raw data

WGS F1 (USA 195)1 32258U 07046A   26256.06987654 -.00000279  00000+0  00000+0 0  99902 32258   0.0105 130.4148 0000452  59.4778 144.8110  1.00270375 53215

JSON: /api/v1/satellites/32258 · /tle

For live sub-satellite position, see the globe view (requires WebGL).

§ Visibility from observer

Set your observer location to see the next 7 days of passes ≥ 10°. The values pass through the URL so the page stays shareable.

No JS? Fill the form by hand. The geolocation button needs JavaScript.